VBV338 EHRD-LEIB

Flight info

Callsign VBV338
Flight time 2h 31m
Altitude 38000
Route WOODY N872 CIV DCT KOVIN DCT DUCRA DCT RESMI DCT DEKOD DCT DISAK DCT DIRMO DCT ETAMO DCT ADEKA DCT MOKDI DCT MEN DCT BADAM DCT KANIG DCT KENAS DCT POS
Aircraft B738/M-SDE2E3FGHIRWXY/LB1

Departure

Time 2026-05-06 09:38
Airport Rotterdam The Hague Airport (EHRD)

Arrival

Time 2026-05-06 12:09
Airport Ibiza Airport (LEIB)
Time Latitude Longitude Altitude Speed Heading
2026-05-06 09:28 51.95156 4.43513 -7 ft 0 kts 147°
2026-05-06 09:29 51.95155 4.43513 -7 ft 0 kts 147°
2026-05-06 09:31 51.95160 4.43509 -7 ft 2 kts 147°
2026-05-06 09:31 51.95173 4.43494 -7 ft 3 kts 139°
2026-05-06 09:31 51.95186 4.43470 -7 ft 3 kts 121°
2026-05-06 09:32 51.95193 4.43439 -7 ft 3 kts 101°
2026-05-06 09:32 51.95194 4.43406 -7 ft 3 kts 83°
2026-05-06 09:32 51.95189 4.43376 -7 ft 3 kts 68°
2026-05-06 09:32 51.95183 4.43357 -7 ft 0 kts 58°
2026-05-06 09:35 51.95187 4.43371 -7 ft 5 kts 69°
2026-05-06 09:35 51.95211 4.43477 -7 ft 12 kts 69°
2026-05-06 09:35 51.95261 4.43544 -7 ft 8 kts 330°
2026-05-06 09:36 51.95285 4.43469 -7 ft 8 kts 251°
2026-05-06 09:36 51.95251 4.43377 -7 ft 11 kts 236°
2026-05-06 09:36 51.95203 4.43258 -7 ft 14 kts 240°
2026-05-06 09:36 51.95202 4.43114 -7 ft 13 kts 315°
2026-05-06 09:37 51.95278 4.43076 -7 ft 9 kts 352°
2026-05-06 09:37 51.95316 4.43094 -7 ft 0 kts 54°
2026-05-06 09:37 51.95330 4.43127 -7 ft 22 kts 57°
2026-05-06 09:38 51.95562 4.43697 -7 ft 97 kts 55°
2026-05-06 09:38 51.96024 4.44964 -7 ft 162 kts 52°
2026-05-06 09:38 51.96680 4.46489 787 ft 162 kts 44°
2026-05-06 09:38 51.97334 4.47957 1827 ft 154 kts 58°
2026-05-06 09:39 51.97817 4.49499 2637 ft 157 kts 59°
2026-05-06 09:39 51.98327 4.51160 3043 ft 174 kts 59°
2026-05-06 09:39 51.98895 4.53016 3081 ft 191 kts 60°
2026-05-06 09:39 51.99500 4.55001 2991 ft 198 kts 60°
2026-05-06 09:40 52.00101 4.56959 3189 ft 185 kts 59°
2026-05-06 09:40 52.00545 4.58779 3626 ft 168 kts 74°
2026-05-06 09:40 51.99549 4.62200 4663 ft 187 kts 134°
2026-05-06 09:41 51.98478 4.63392 5241 ft 187 kts 143°
2026-05-06 09:41 51.97333 4.64385 5819 ft 187 kts 148°
2026-05-06 09:41 51.96162 4.65314 6397 ft 188 kts 149°
2026-05-06 09:41 51.95384 4.65932 6781 ft 190 kts 149°
2026-05-06 09:42 51.94200 4.66870 7354 ft 190 kts 152°
2026-05-06 09:42 51.92877 4.67180 7897 ft 198 kts 186°
2026-05-06 09:42 51.91632 4.66273 8474 ft 200 kts 218°
2026-05-06 09:42 51.90704 4.64607 9081 ft 199 kts 232°
2026-05-06 09:43 51.89936 4.62743 9662 ft 199 kts 237°
2026-05-06 09:43 51.89190 4.60856 10240 ft 199 kts 237°
2026-05-06 09:43 51.88433 4.58985 10818 ft 198 kts 237°
2026-05-06 09:43 51.87651 4.57150 11383 ft 199 kts 227°
2026-05-06 09:44 51.86508 4.55903 11959 ft 200 kts 204°
2026-05-06 09:44 51.85187 4.55146 12546 ft 203 kts 199°
2026-05-06 09:44 51.83826 4.54506 13124 ft 204 kts 197°
2026-05-06 09:44 51.82449 4.53906 13700 ft 206 kts 196°
2026-05-06 09:45 51.81063 4.53310 14276 ft 207 kts 196°
2026-05-06 09:45 51.79666 4.52714 14853 ft 208 kts 195°
2026-05-06 09:45 51.78258 4.52117 15430 ft 210 kts 195°
2026-05-06 09:45 51.76841 4.51519 16006 ft 211 kts 195°
2026-05-06 09:46 51.75420 4.50923 16581 ft 211 kts 195°
2026-05-06 09:46 51.73997 4.50328 17156 ft 211 kts 195°
2026-05-06 09:46 51.72578 4.49736 17729 ft 210 kts 195°
2026-05-06 09:46 51.71169 4.49142 18297 ft 209 kts 195°
2026-05-06 09:47 51.69740 4.48541 18716 ft 216 kts 195°
2026-05-06 09:47 51.68253 4.47920 19127 ft 224 kts 195°
2026-05-06 09:47 51.66737 4.47290 19659 ft 225 kts 195°
2026-05-06 09:47 51.65220 4.46661 20217 ft 225 kts 195°
2026-05-06 09:48 51.63697 4.46032 20749 ft 227 kts 195°
2026-05-06 09:48 51.62160 4.45399 21250 ft 229 kts 195°
2026-05-06 09:48 51.60630 4.44770 21737 ft 231 kts 195°
2026-05-06 09:48 51.59063 4.44127 22236 ft 233 kts 195°
2026-05-06 09:49 51.57489 4.43482 22731 ft 235 kts 195°
2026-05-06 09:49 51.55899 4.42832 23219 ft 236 kts 194°
2026-05-06 09:49 51.54297 4.42177 23681 ft 239 kts 194°
2026-05-06 09:49 51.52678 4.41517 24142 ft 241 kts 194°
2026-05-06 09:50 51.51044 4.40850 24602 ft 243 kts 194°
2026-05-06 09:50 51.49398 4.40179 25047 ft 246 kts 194°
2026-05-06 09:50 51.47709 4.39492 25314 ft 257 kts 194°
2026-05-06 09:50 51.45931 4.38769 25500 ft 271 kts 194°
2026-05-06 09:51 51.44064 4.38010 25771 ft 281 kts 194°
2026-05-06 09:51 51.42155 4.37233 26259 ft 282 kts 194°
2026-05-06 09:51 51.40309 4.36327 26932 ft 278 kts 201°
2026-05-06 09:51 51.38498 4.35070 27120 ft 291 kts 205°
2026-05-06 09:52 51.36621 4.33650 27245 ft 306 kts 205°
2026-05-06 09:52 51.34651 4.32167 27485 ft 316 kts 205°
2026-05-06 09:52 51.32668 4.30678 28063 ft 314 kts 205°
2026-05-06 09:52 51.30704 4.29158 28637 ft 312 kts 205°
2026-05-06 09:53 51.28750 4.27674 29209 ft 310 kts 205°
2026-05-06 09:53 51.26814 4.26210 29781 ft 306 kts 205°
2026-05-06 09:53 51.24894 4.24757 30353 ft 302 kts 205°
2026-05-06 09:53 51.23011 4.23331 30921 ft 297 kts 205°
2026-05-06 09:54 51.21161 4.21931 31485 ft 291 kts 205°
2026-05-06 09:54 51.19353 4.20562 32048 ft 284 kts 205°
2026-05-06 09:54 51.17591 4.19228 32607 ft 276 kts 205°
2026-05-06 09:54 51.15839 4.17986 32946 ft 278 kts 201°
2026-05-06 09:55 51.13989 4.16898 33031 ft 288 kts 199°
2026-05-06 09:55 51.12056 4.15856 33126 ft 298 kts 198°
2026-05-06 09:55 51.10054 4.14786 33218 ft 309 kts 198°
2026-05-06 09:55 51.07988 4.13677 33307 ft 319 kts 199°
2026-05-06 09:56 51.03650 4.11336 33476 ft 339 kts 199°
2026-05-06 09:56 50.99046 4.08842 33641 ft 359 kts 199°
2026-05-06 09:57 50.94226 4.06229 33790 ft 378 kts 199°
2026-05-06 09:57 50.89125 4.03466 33928 ft 396 kts 199°
2026-05-06 09:58 50.83844 4.00348 34054 ft 413 kts 202°
2026-05-06 09:58 50.78438 3.96767 34165 ft 429 kts 202°
2026-05-06 09:59 50.72821 3.93130 34331 ft 442 kts 202°
2026-05-06 09:59 50.69969 3.91301 34546 ft 444 kts 202°
2026-05-06 09:59 50.67097 3.89467 34792 ft 446 kts 202°
2026-05-06 10:00 50.64224 3.87637 35130 ft 445 kts 202°
2026-05-06 10:00 50.61354 3.85813 35441 ft 444 kts 202°
2026-05-06 10:00 50.58489 3.83993 35754 ft 444 kts 202°
2026-05-06 10:00 50.55634 3.82136 36022 ft 444 kts 203°
2026-05-06 10:01 50.52805 3.80202 36339 ft 443 kts 204°
2026-05-06 10:01 50.49978 3.78267 36597 ft 444 kts 204°
2026-05-06 10:01 50.47152 3.76338 36904 ft 443 kts 204°
2026-05-06 10:01 50.44322 3.74412 37152 ft 443 kts 204°
2026-05-06 10:02 50.41498 3.72494 37446 ft 442 kts 204°
2026-05-06 10:02 50.38676 3.70580 37672 ft 443 kts 204°
2026-05-06 10:02 50.35854 3.68670 37898 ft 443 kts 203°
2026-05-06 10:02 50.33014 3.66750 37884 ft 444 kts 203°
2026-05-06 10:03 50.27309 3.62903 37880 ft 451 kts 203°
2026-05-06 10:03 50.21515 3.58973 37880 ft 457 kts 204°
2026-05-06 10:04 50.15669 3.55022 37881 ft 458 kts 204°
2026-05-06 10:04 50.09827 3.51093 37882 ft 457 kts 203°
2026-05-06 10:05 50.04023 3.47201 37883 ft 457 kts 203°
2026-05-06 10:05 49.98178 3.43299 37885 ft 457 kts 203°
2026-05-06 10:06 49.92329 3.39404 37878 ft 457 kts 203°
2026-05-06 10:06 49.86523 3.35548 37889 ft 457 kts 203°
2026-05-06 10:07 49.80669 3.31670 37892 ft 457 kts 203°
2026-05-06 10:07 49.74825 3.27789 37892 ft 457 kts 203°
2026-05-06 10:08 49.68968 3.23921 37892 ft 458 kts 203°
2026-05-06 10:08 49.63110 3.20076 37891 ft 458 kts 203°
2026-05-06 10:09 49.57249 3.16242 37891 ft 458 kts 203°
2026-05-06 10:09 49.51381 3.12414 37890 ft 459 kts 203°
2026-05-06 10:10 49.45766 3.07770 37891 ft 459 kts 212°
2026-05-06 10:10 49.40441 3.02369 37891 ft 459 kts 213°
2026-05-06 10:11 49.35115 2.96965 37893 ft 459 kts 213°
2026-05-06 10:11 49.29787 2.91586 37895 ft 459 kts 213°
2026-05-06 10:12 49.24457 2.86221 37897 ft 459 kts 213°
2026-05-06 10:12 49.19141 2.80813 37899 ft 459 kts 213°
2026-05-06 10:13 49.13807 2.75439 37900 ft 460 kts 213°
2026-05-06 10:13 49.08489 2.70124 37903 ft 460 kts 213°
2026-05-06 10:14 49.03132 2.64790 37901 ft 460 kts 213°
2026-05-06 10:14 48.97775 2.59467 37904 ft 460 kts 213°
2026-05-06 10:15 48.92413 2.54153 37904 ft 460 kts 213°
2026-05-06 10:15 48.87049 2.48850 37903 ft 460 kts 213°
2026-05-06 10:16 48.81690 2.43530 37902 ft 460 kts 213°
2026-05-06 10:16 48.76326 2.38216 37904 ft 460 kts 213°
2026-05-06 10:17 48.70960 2.32941 37907 ft 460 kts 213°
2026-05-06 10:17 48.65582 2.27676 37904 ft 460 kts 213°
2026-05-06 10:18 48.60186 2.22469 37902 ft 461 kts 210°
2026-05-06 10:18 48.54315 2.18585 37906 ft 462 kts 197°
2026-05-06 10:19 48.48070 2.16290 37905 ft 462 kts 192°
2026-05-06 10:19 48.41772 2.14303 37905 ft 462 kts 192°
2026-05-06 10:20 48.35488 2.12299 37905 ft 462 kts 192°
2026-05-06 10:20 48.29186 2.10760 37905 ft 462 kts 184°
2026-05-06 10:21 48.22760 2.11143 37906 ft 464 kts 173°
2026-05-06 10:21 48.16371 2.12534 37905 ft 464 kts 172°
2026-05-06 10:22 48.09965 2.13580 37905 ft 463 kts 178°
2026-05-06 10:22 48.03529 2.13911 37905 ft 463 kts 179°
2026-05-06 10:23 47.97088 2.14216 37905 ft 463 kts 179°
2026-05-06 10:23 47.90646 2.14554 37905 ft 463 kts 178°
2026-05-06 10:24 47.84206 2.14909 37906 ft 463 kts 178°
2026-05-06 10:24 47.77766 2.15273 37905 ft 463 kts 178°
2026-05-06 10:25 47.71325 2.15642 37904 ft 463 kts 178°
2026-05-06 10:25 47.64877 2.16012 37904 ft 463 kts 178°
2026-05-06 10:26 47.58441 2.16382 37902 ft 462 kts 178°
2026-05-06 10:26 47.52011 2.16750 37900 ft 463 kts 179°
2026-05-06 10:27 47.45583 2.17118 37898 ft 462 kts 179°
2026-05-06 10:27 47.39158 2.17486 37897 ft 462 kts 179°
2026-05-06 10:28 47.32725 2.17853 37896 ft 462 kts 179°
2026-05-06 10:28 47.26343 2.18215 37894 ft 462 kts 179°
2026-05-06 10:29 47.19877 2.18578 37893 ft 462 kts 179°
2026-05-06 10:29 47.14530 2.18883 37892 ft 462 kts 179°
2026-05-06 10:30 47.08145 2.20111 37891 ft 464 kts 167°
2026-05-06 10:30 47.02028 2.23176 37889 ft 466 kts 159°
2026-05-06 10:31 46.96023 2.26756 37888 ft 466 kts 160°
2026-05-06 10:31 46.90003 2.30292 37888 ft 467 kts 160°
2026-05-06 10:32 46.84032 2.34021 37887 ft 468 kts 154°
2026-05-06 10:32 46.78464 2.38987 37887 ft 470 kts 148°
2026-05-06 10:33 46.73001 2.44219 37887 ft 470 kts 148°
2026-05-06 10:33 46.67565 2.49391 37888 ft 470 kts 149°
2026-05-06 10:34 46.62090 2.54578 37889 ft 470 kts 149°
2026-05-06 10:34 46.56606 2.59754 37891 ft 470 kts 149°
2026-05-06 10:35 46.51133 2.64946 37890 ft 470 kts 149°
2026-05-06 10:35 46.45656 2.70124 37888 ft 470 kts 149°
2026-05-06 10:36 46.40179 2.75279 37891 ft 470 kts 149°
2026-05-06 10:36 46.34697 2.80420 37893 ft 469 kts 149°
2026-05-06 10:37 46.29212 2.85549 37896 ft 469 kts 149°
2026-05-06 10:37 46.23726 2.90667 37898 ft 469 kts 149°
2026-05-06 10:38 46.18248 2.95787 37900 ft 469 kts 149°
2026-05-06 10:38 46.12766 3.00886 37904 ft 469 kts 149°
2026-05-06 10:39 46.07274 3.05964 37905 ft 468 kts 150°
2026-05-06 10:39 46.01785 3.11022 37905 ft 468 kts 150°
2026-05-06 10:40 45.96207 3.15790 37903 ft 465 kts 159°
2026-05-06 10:40 45.89993 3.17946 37906 ft 458 kts 178°
2026-05-06 10:41 45.83642 3.18022 37906 ft 456 kts 184°
2026-05-06 10:41 45.77296 3.17857 37905 ft 456 kts 183°
2026-05-06 10:42 45.70945 3.17731 37905 ft 457 kts 183°
2026-05-06 10:42 45.64595 3.17626 37906 ft 456 kts 183°
2026-05-06 10:43 45.58247 3.17531 37908 ft 456 kts 183°
2026-05-06 10:44 45.48727 3.17398 37911 ft 456 kts 183°
2026-05-06 10:44 45.42381 3.17313 37914 ft 456 kts 183°
2026-05-06 10:45 45.36074 3.17229 37917 ft 456 kts 183°
2026-05-06 10:45 45.29739 3.17145 37920 ft 456 kts 183°
2026-05-06 10:46 45.23391 3.17061 37923 ft 456 kts 183°
2026-05-06 10:46 45.17052 3.16978 37925 ft 456 kts 183°
2026-05-06 10:47 45.10709 3.16895 37926 ft 456 kts 183°
2026-05-06 10:47 45.04372 3.16813 37929 ft 456 kts 183°
2026-05-06 10:48 44.98027 3.16730 37930 ft 456 kts 183°
2026-05-06 10:48 44.91689 3.16642 37933 ft 455 kts 183°
2026-05-06 10:49 44.85354 3.16551 37937 ft 455 kts 184°
2026-05-06 10:49 44.79031 3.16460 37941 ft 454 kts 184°
2026-05-06 10:50 44.72708 3.16370 37942 ft 454 kts 184°
2026-05-06 10:50 44.66381 3.16280 37943 ft 455 kts 184°
2026-05-06 10:51 44.60058 3.16197 37945 ft 454 kts 183°
2026-05-06 10:51 44.53732 3.16305 37947 ft 455 kts 182°
2026-05-06 10:52 44.47402 3.16425 37947 ft 455 kts 182°
2026-05-06 10:52 44.41077 3.16539 37949 ft 454 kts 182°
2026-05-06 10:53 44.34751 3.16651 37954 ft 454 kts 182°
2026-05-06 10:53 44.28465 3.16760 37959 ft 455 kts 182°
2026-05-06 10:54 44.22147 3.16868 37960 ft 454 kts 182°
2026-05-06 10:54 44.15830 3.16977 37960 ft 454 kts 182°
2026-05-06 10:55 44.09514 3.17083 37960 ft 454 kts 183°
2026-05-06 10:55 44.03231 3.16626 37960 ft 451 kts 188°
2026-05-06 10:56 43.96990 3.15813 37960 ft 449 kts 189°
2026-05-06 10:56 43.90778 3.15026 37959 ft 448 kts 189°
2026-05-06 10:57 43.84560 3.14261 37958 ft 449 kts 189°
2026-05-06 10:57 43.78339 3.13508 37957 ft 449 kts 189°
2026-05-06 10:58 43.72120 3.12761 37954 ft 448 kts 189°
2026-05-06 10:58 43.65901 3.12016 37952 ft 448 kts 189°
2026-05-06 10:59 43.59730 3.11282 37950 ft 448 kts 189°
2026-05-06 10:59 43.53517 3.10546 37947 ft 448 kts 189°
2026-05-06 11:00 43.47304 3.09812 37944 ft 448 kts 189°
2026-05-06 11:00 43.41102 3.09082 37943 ft 447 kts 189°
2026-05-06 11:01 43.34904 3.08354 37942 ft 447 kts 189°
2026-05-06 11:01 43.28710 3.07628 37942 ft 447 kts 189°
2026-05-06 11:02 43.22508 3.06903 37943 ft 447 kts 189°
2026-05-06 11:02 43.16320 3.06180 37944 ft 446 kts 189°
2026-05-06 11:03 43.10131 3.05459 37947 ft 446 kts 189°
2026-05-06 11:03 43.03953 3.04741 37951 ft 445 kts 189°
2026-05-06 11:04 42.97781 3.04025 37955 ft 445 kts 189°
2026-05-06 11:04 42.91608 3.03311 37958 ft 445 kts 189°
2026-05-06 11:05 42.85480 3.02603 37961 ft 444 kts 189°
2026-05-06 11:05 42.79318 3.01891 37963 ft 445 kts 189°
2026-05-06 11:06 42.73154 3.01179 37963 ft 444 kts 189°
2026-05-06 11:06 42.66998 3.00471 37964 ft 444 kts 189°
2026-05-06 11:07 42.60845 2.99767 37963 ft 443 kts 189°
2026-05-06 11:07 42.54699 2.99065 37963 ft 443 kts 189°
2026-05-06 11:08 42.48541 2.98415 37961 ft 445 kts 186°
2026-05-06 11:08 42.42322 2.98715 37962 ft 449 kts 181°
2026-05-06 11:09 42.36095 2.99247 37962 ft 448 kts 181°
2026-05-06 11:09 42.29872 2.99768 37962 ft 448 kts 181°
2026-05-06 11:10 42.23653 3.00283 37962 ft 448 kts 182°
2026-05-06 11:10 42.17436 3.00793 37963 ft 447 kts 182°
2026-05-06 11:11 42.11223 3.01301 37963 ft 447 kts 182°
2026-05-06 11:11 42.05013 3.01809 37963 ft 447 kts 182°
2026-05-06 11:12 41.98801 3.02315 37964 ft 447 kts 182°
2026-05-06 11:12 41.92606 3.02818 37964 ft 445 kts 182°
2026-05-06 11:13 41.86429 3.03317 37964 ft 445 kts 182°
2026-05-06 11:13 41.80251 3.03815 37964 ft 444 kts 182°
2026-05-06 11:14 41.74119 3.04308 37964 ft 444 kts 182°
2026-05-06 11:14 41.67946 3.04804 37964 ft 444 kts 182°
2026-05-06 11:15 41.61775 3.05299 37963 ft 444 kts 182°
2026-05-06 11:15 41.55603 3.05793 37963 ft 444 kts 182°
2026-05-06 11:16 41.49434 3.06285 37963 ft 444 kts 182°
2026-05-06 11:16 41.43266 3.06777 37963 ft 444 kts 182°
2026-05-06 11:17 41.37098 3.07268 37963 ft 444 kts 182°
2026-05-06 11:17 41.30930 3.07758 37963 ft 444 kts 182°
2026-05-06 11:18 41.24760 3.08247 37961 ft 444 kts 182°
2026-05-06 11:18 41.18600 3.08734 37959 ft 444 kts 182°
2026-05-06 11:19 41.13435 3.09142 37958 ft 443 kts 182°
2026-05-06 11:19 41.07280 3.09627 37957 ft 443 kts 182°
2026-05-06 11:20 41.00123 3.10190 37956 ft 444 kts 182°
2026-05-06 11:20 40.94953 3.10597 37956 ft 444 kts 182°
2026-05-06 11:21 40.88794 3.11079 37956 ft 443 kts 182°
2026-05-06 11:21 40.85705 3.11321 37586 ft 446 kts 182°
2026-05-06 11:21 40.82610 3.11563 37013 ft 443 kts 182°
2026-05-06 11:21 40.79590 3.11801 36446 ft 438 kts 183°
2026-05-06 11:22 40.76568 3.12037 35870 ft 432 kts 183°
2026-05-06 11:22 40.73542 3.12274 35287 ft 427 kts 183°
2026-05-06 11:22 40.70593 3.12503 34712 ft 423 kts 183°
2026-05-06 11:22 40.67707 3.12728 34143 ft 420 kts 183°
2026-05-06 11:23 40.64805 3.12953 33568 ft 416 kts 184°
2026-05-06 11:23 40.61920 3.13177 32991 ft 413 kts 184°
2026-05-06 11:23 40.59059 3.13398 32416 ft 410 kts 184°
2026-05-06 11:23 40.56219 3.13619 31840 ft 408 kts 184°
2026-05-06 11:24 40.53361 3.13840 31257 ft 405 kts 184°
2026-05-06 11:24 40.50593 3.14053 30689 ft 402 kts 184°
2026-05-06 11:24 40.47781 3.14119 30105 ft 396 kts 187°
2026-05-06 11:24 40.45074 3.14024 29538 ft 393 kts 188°
2026-05-06 11:25 40.42347 3.13863 28961 ft 391 kts 189°
2026-05-06 11:25 40.39635 3.13707 28385 ft 389 kts 188°
2026-05-06 11:25 40.36939 3.13560 27811 ft 388 kts 188°
2026-05-06 11:25 40.34248 3.13421 27234 ft 386 kts 188°
2026-05-06 11:26 40.31568 3.13287 26659 ft 385 kts 188°
2026-05-06 11:26 40.28898 3.13158 26083 ft 383 kts 188°
2026-05-06 11:26 40.26239 3.13031 25507 ft 382 kts 188°
2026-05-06 11:26 40.23588 3.12906 24931 ft 380 kts 188°
2026-05-06 11:27 40.20951 3.12782 24355 ft 379 kts 188°
2026-05-06 11:27 40.18317 3.12660 23779 ft 378 kts 187°
2026-05-06 11:27 40.15691 3.12540 23203 ft 376 kts 187°
2026-05-06 11:27 40.13078 3.12421 22627 ft 375 kts 187°
2026-05-06 11:28 40.10475 3.12302 22051 ft 374 kts 187°
2026-05-06 11:28 40.07876 3.12185 21475 ft 373 kts 187°
2026-05-06 11:28 40.05288 3.12068 20899 ft 371 kts 187°
2026-05-06 11:28 40.02709 3.11951 20323 ft 370 kts 187°
2026-05-06 11:29 40.00142 3.11835 19748 ft 369 kts 187°
2026-05-06 11:29 39.97585 3.11720 19172 ft 367 kts 187°
2026-05-06 11:29 39.95042 3.11519 18595 ft 363 kts 192°
2026-05-06 11:29 39.92632 3.10792 18027 ft 358 kts 202°
2026-05-06 11:30 39.90348 3.09560 17434 ft 354 kts 208°
2026-05-06 11:30 39.88146 3.08118 16808 ft 353 kts 211°
2026-05-06 11:30 39.86016 3.06607 16180 ft 345 kts 212°
2026-05-06 11:30 39.83943 3.05105 15555 ft 338 kts 212°
2026-05-06 11:31 39.81909 3.03630 14928 ft 332 kts 212°
2026-05-06 11:31 39.79910 3.02179 14303 ft 327 kts 212°
2026-05-06 11:31 39.77932 3.00745 13675 ft 323 kts 212°
2026-05-06 11:31 39.75983 2.99332 13051 ft 319 kts 212°
2026-05-06 11:32 39.74048 2.97927 12423 ft 316 kts 212°
2026-05-06 11:32 39.72139 2.96537 11798 ft 314 kts 212°
2026-05-06 11:32 39.70244 2.95150 11171 ft 312 kts 212°
2026-05-06 11:32 39.68361 2.93773 10549 ft 310 kts 212°
2026-05-06 11:33 39.66480 2.92402 9919 ft 309 kts 211°
2026-05-06 11:33 39.64608 2.91042 9294 ft 308 kts 210°
2026-05-06 11:33 39.62739 2.89687 8667 ft 307 kts 210°
2026-05-06 11:33 39.60875 2.88338 8042 ft 307 kts 210°
2026-05-06 11:34 39.59015 2.86994 7417 ft 306 kts 210°
2026-05-06 11:34 39.57161 2.85656 6793 ft 305 kts 210°
2026-05-06 11:34 39.55302 2.84318 6167 ft 305 kts 209°
2026-05-06 11:34 39.53454 2.82984 5539 ft 304 kts 209°
2026-05-06 11:35 39.51609 2.81656 4928 ft 302 kts 209°
2026-05-06 11:35 39.49805 2.80358 4659 ft 289 kts 209°
2026-05-06 11:35 39.48101 2.79128 4585 ft 273 kts 210°
2026-05-06 11:35 39.46479 2.77962 4511 ft 259 kts 209°
2026-05-06 11:36 39.44937 2.76855 4490 ft 249 kts 210°
2026-05-06 11:36 39.43534 2.75593 4486 ft 243 kts 221°
2026-05-06 11:36 39.42338 2.74060 4496 ft 242 kts 228°
2026-05-06 11:36 39.41240 2.72400 4502 ft 244 kts 231°
2026-05-06 11:37 39.40166 2.70677 4504 ft 247 kts 232°
2026-05-06 11:37 39.39079 2.68928 4508 ft 252 kts 232°
2026-05-06 11:37 39.37982 2.67165 4504 ft 251 kts 231°
2026-05-06 11:37 39.36888 2.65418 4502 ft 252 kts 231°
2026-05-06 11:38 39.35786 2.63657 4508 ft 254 kts 231°
2026-05-06 11:38 39.34665 2.61874 4506 ft 253 kts 231°
2026-05-06 11:38 39.33558 2.60111 4504 ft 252 kts 231°
2026-05-06 11:38 39.32430 2.58320 4509 ft 262 kts 231°
2026-05-06 11:39 39.31279 2.56495 4506 ft 260 kts 231°
2026-05-06 11:39 39.30148 2.54704 4502 ft 255 kts 231°
2026-05-06 11:39 39.29051 2.52967 4509 ft 252 kts 231°
2026-05-06 11:39 39.27920 2.51178 4510 ft 256 kts 231°
2026-05-06 11:40 39.26808 2.49425 4506 ft 255 kts 231°
2026-05-06 11:40 39.25690 2.47660 4504 ft 253 kts 231°
2026-05-06 11:40 39.24566 2.45890 4510 ft 262 kts 231°
2026-05-06 11:40 39.23382 2.44009 4533 ft 276 kts 231°
2026-05-06 11:41 39.22168 2.42096 4510 ft 274 kts 231°
2026-05-06 11:41 39.20968 2.40208 4505 ft 270 kts 231°
2026-05-06 11:41 39.19784 2.38336 4509 ft 270 kts 231°
2026-05-06 11:41 39.18577 2.36420 4517 ft 279 kts 231°
2026-05-06 11:42 39.17356 2.34492 4507 ft 276 kts 231°
2026-05-06 11:42 39.16147 2.32590 4505 ft 273 kts 231°
2026-05-06 11:42 39.14954 2.30709 4504 ft 268 kts 231°
2026-05-06 11:42 39.13780 2.28858 4493 ft 266 kts 230°
2026-05-06 11:43 39.12612 2.27014 4504 ft 267 kts 231°
2026-05-06 11:43 39.11437 2.25162 4502 ft 265 kts 231°
2026-05-06 11:43 39.10278 2.23323 4501 ft 263 kts 231°
2026-05-06 11:44 39.07958 2.19671 4503 ft 265 kts 231°
2026-05-06 11:44 39.06782 2.17835 4504 ft 269 kts 231°
2026-05-06 11:44 39.05601 2.15983 4502 ft 266 kts 230°
2026-05-06 11:44 39.04433 2.14161 4494 ft 262 kts 231°
2026-05-06 11:45 39.03279 2.12357 4507 ft 261 kts 231°
2026-05-06 11:45 39.02126 2.10554 4505 ft 264 kts 230°
2026-05-06 11:45 39.00942 2.08711 4508 ft 267 kts 230°
2026-05-06 11:45 38.99766 2.06885 4504 ft 264 kts 230°
2026-05-06 11:46 38.98598 2.05071 4414 ft 266 kts 230°
2026-05-06 11:46 38.97405 2.03221 4110 ft 267 kts 230°
2026-05-06 11:46 38.96232 2.01399 4043 ft 262 kts 230°
2026-05-06 11:46 38.95076 1.99607 4002 ft 259 kts 230°
2026-05-06 11:47 38.93935 1.97837 4003 ft 256 kts 231°
2026-05-06 11:47 38.92801 1.96080 4004 ft 255 kts 231°
2026-05-06 11:47 38.91939 1.94743 4005 ft 256 kts 231°
2026-05-06 11:47 38.90890 1.92771 4004 ft 258 kts 243°
2026-05-06 11:48 38.90200 1.90642 4006 ft 258 kts 251°
2026-05-06 11:48 38.89703 1.88429 4005 ft 258 kts 256°
2026-05-06 11:48 38.89276 1.86193 4005 ft 258 kts 257°
2026-05-06 11:48 38.88961 1.84535 4005 ft 258 kts 256°
2026-05-06 11:49 38.88578 1.82566 4005 ft 258 kts 256°
2026-05-06 11:49 38.88137 1.80334 4005 ft 258 kts 256°
2026-05-06 11:49 38.87687 1.78097 4005 ft 258 kts 256°
2026-05-06 11:49 38.87236 1.75871 4005 ft 258 kts 256°
2026-05-06 11:50 38.86779 1.73641 4005 ft 259 kts 255°
2026-05-06 11:50 38.86321 1.71410 4005 ft 259 kts 255°
2026-05-06 11:50 38.85861 1.69181 4002 ft 258 kts 255°
2026-05-06 11:50 38.85400 1.66957 4004 ft 258 kts 255°
2026-05-06 11:51 38.84938 1.64728 4004 ft 258 kts 255°
2026-05-06 11:51 38.84475 1.62503 4005 ft 258 kts 255°
2026-05-06 11:51 38.84014 1.60278 4004 ft 258 kts 255°
2026-05-06 11:51 38.83536 1.58057 4004 ft 258 kts 255°
2026-05-06 11:52 38.83049 1.55842 4004 ft 258 kts 255°
2026-05-06 11:52 38.82559 1.53626 4004 ft 258 kts 254°
2026-05-06 11:52 38.82075 1.51443 4004 ft 258 kts 254°
2026-05-06 11:52 38.81583 1.49228 4004 ft 258 kts 254°
2026-05-06 11:53 38.81091 1.47017 4000 ft 259 kts 254°
2026-05-06 11:53 38.80598 1.44799 4004 ft 258 kts 254°
2026-05-06 11:53 38.80026 1.42618 4003 ft 258 kts 248°
2026-05-06 11:53 38.79248 1.40539 4004 ft 259 kts 243°
2026-05-06 11:54 38.78385 1.38508 4005 ft 260 kts 242°
2026-05-06 11:54 38.77521 1.36478 4002 ft 259 kts 242°
2026-05-06 11:54 38.76663 1.34441 4004 ft 260 kts 242°
2026-05-06 11:54 38.75807 1.32391 3878 ft 264 kts 242°
2026-05-06 11:55 38.74942 1.30318 3679 ft 264 kts 242°
2026-05-06 11:55 38.74084 1.28256 3514 ft 260 kts 242°
2026-05-06 11:55 38.73244 1.26232 3502 ft 256 kts 242°
2026-05-06 11:55 38.72404 1.24213 3417 ft 258 kts 242°
2026-05-06 11:56 38.71558 1.22185 3295 ft 258 kts 242°
2026-05-06 11:56 38.70711 1.20159 3170 ft 257 kts 242°
2026-05-06 11:56 38.69866 1.18140 3045 ft 257 kts 242°
2026-05-06 11:56 38.69024 1.16126 3008 ft 256 kts 242°
2026-05-06 11:57 38.68186 1.14123 3004 ft 255 kts 242°
2026-05-06 11:57 38.67352 1.12126 3005 ft 255 kts 242°
2026-05-06 11:57 38.66512 1.10121 3006 ft 257 kts 242°
2026-05-06 11:57 38.65662 1.08097 3007 ft 259 kts 242°
2026-05-06 11:58 38.64863 1.06038 3004 ft 258 kts 248°
2026-05-06 11:58 38.64328 1.03857 3006 ft 257 kts 257°
2026-05-06 11:58 38.63990 1.01613 3006 ft 257 kts 261°
2026-05-06 11:58 38.63831 0.99345 2988 ft 257 kts 276°
2026-05-06 11:59 38.64391 0.97205 2994 ft 259 kts 303°
2026-05-06 11:59 38.65695 0.95486 3034 ft 291 kts 326°
2026-05-06 11:59 38.67573 0.94467 3028 ft 287 kts 349°
2026-05-06 11:59 38.69474 0.94493 3010 ft 271 kts 13°
2026-05-06 12:00 38.71097 0.95495 3028 ft 252 kts 39°
2026-05-06 12:00 38.72111 0.97205 3002 ft 235 kts 66°
2026-05-06 12:00 38.72390 0.99159 3032 ft 214 kts 86°
2026-05-06 12:00 38.72565 1.00963 2992 ft 195 kts 75°
2026-05-06 12:01 38.72993 1.02517 2951 ft 177 kts 67°
2026-05-06 12:01 38.73498 1.03908 2930 ft 168 kts 63°
2026-05-06 12:01 38.74024 1.05222 2939 ft 164 kts 62°
2026-05-06 12:01 38.74540 1.06490 2973 ft 156 kts 62°
2026-05-06 12:02 38.75035 1.07702 2967 ft 151 kts 62°
2026-05-06 12:02 38.75512 1.08870 3018 ft 146 kts 62°
2026-05-06 12:02 38.75977 1.10007 3007 ft 143 kts 62°
2026-05-06 12:02 38.76435 1.11126 2993 ft 141 kts 62°
2026-05-06 12:03 38.76886 1.12228 2988 ft 139 kts 62°
2026-05-06 12:03 38.77336 1.13328 3001 ft 139 kts 62°
2026-05-06 12:03 38.77781 1.14417 3077 ft 138 kts 62°
2026-05-06 12:03 38.78234 1.15510 3071 ft 139 kts 61°
2026-05-06 12:04 38.78689 1.16600 3038 ft 139 kts 61°
2026-05-06 12:04 38.79148 1.17703 2863 ft 141 kts 61°
2026-05-06 12:04 38.79619 1.18836 2405 ft 147 kts 62°
2026-05-06 12:04 38.80092 1.19973 2041 ft 141 kts 62°
2026-05-06 12:05 38.80539 1.21046 1928 ft 133 kts 62°
2026-05-06 12:05 38.80826 1.21737 1917 ft 132 kts 63°
2026-05-06 12:05 38.81257 1.22777 1939 ft 132 kts 63°
2026-05-06 12:05 38.81691 1.23824 1970 ft 134 kts 62°
2026-05-06 12:06 38.82140 1.24885 1986 ft 136 kts 62°
2026-05-06 12:06 38.82587 1.25956 1864 ft 137 kts 63°
2026-05-06 12:06 38.83033 1.27031 1670 ft 136 kts 63°
2026-05-06 12:06 38.83472 1.28092 1478 ft 133 kts 63°
2026-05-06 12:07 38.83902 1.29130 1302 ft 130 kts 64°
2026-05-06 12:07 38.84323 1.30147 1122 ft 128 kts 65°
2026-05-06 12:07 38.84739 1.31152 949 ft 128 kts 65°
2026-05-06 12:07 38.85155 1.32157 776 ft 127 kts 65°
2026-05-06 12:08 38.85569 1.33158 602 ft 127 kts 65°
2026-05-06 12:08 38.85983 1.34158 428 ft 127 kts 65°
2026-05-06 12:08 38.86395 1.35154 256 ft 126 kts 65°
2026-05-06 12:08 38.86807 1.36141 85 ft 125 kts 64°
2026-05-06 12:09 38.87168 1.37076 66 ft 108 kts 73°
2026-05-06 12:09 38.87225 1.37960 25 ft 71 kts 42°
2026-05-06 12:09 38.87275 1.38289 23 ft 20 kts 32°
2026-05-06 12:09 38.87404 1.38322 26 ft 20 kts 339°
2026-05-06 12:10 38.87548 1.38236 28 ft 26 kts 339°
2026-05-06 12:10 38.87648 1.38226 28 ft 6 kts 37°
2026-05-06 12:10 38.87706 1.38282 28 ft 15 kts 36°
2026-05-06 12:10 38.87755 1.38295 28 ft 0 kts 328°
2026-05-06 12:11 38.87755 1.38294 28 ft 0 kts 328°
2026-05-06 12:11 38.87779 1.38275 28 ft 9 kts 325°
2026-05-06 12:11 38.87855 1.38207 28 ft 17 kts 322°
2026-05-06 12:12 38.87850 1.38060 28 ft 21 kts 240°
2026-05-06 12:12 38.87763 1.37871 28 ft 27 kts 240°
2026-05-06 12:12 38.87691 1.37682 28 ft 7 kts 242°
2026-05-06 12:12 38.87678 1.37607 28 ft 10 kts 295°
2026-05-06 12:13 38.87729 1.37524 28 ft 15 kts 301°
2026-05-06 12:13 38.87773 1.37394 28 ft 18 kts 267°
2026-05-06 12:13 38.87816 1.37260 28 ft 16 kts 341°
2026-05-06 12:13 38.87850 1.37237 28 ft 0 kts 328°